Simultaneous Nadir Overpasses (SNOs) Predictions

Prediction of SNOs between AQUA and NPP Satellite Orbit:

Table of predicted SNOs for the next 14.0 days since TLE Epoch: 5/29/2021
Index Date (AQUA) Time (AQUA) Lat,Lon (AQUA) SZA (AQUA ) Date (NPP) Time (NPP) Lat,Lon (NPP) SZA (NPP ) Distance(km) Time Diff (sec)
1 05/30/2021 06:21:35 75.59, -37.59 76.23 05/30/2021 06:21:19 75.59, -37.65 76.26 1.65 16
2 05/30/2021 07:10:43 -76.56, 133.07 104.91 05/30/2021 07:11:44 -76.55, 132.98 104.94 2.81 61
3 06/01/2021 21:48:57 -74.71, -91.73 103.10 06/01/2021 21:47:51 -74.70, -91.81 103.02 2.57 66
4 06/01/2021 22:37:55 76.06, 79.68 75.35 06/01/2021 22:38:06 76.05, 79.65 75.35 0.99 11
5 06/04/2021 14:05:16 -75.23, 25.51 103.99 06/04/2021 14:04:37 -75.22, 25.46 103.94 1.66 39
6 06/04/2021 14:54:16 76.46,-163.13 74.58 06/04/2021 14:54:54 76.46,-163.12 74.54 0.23 38
7 06/07/2021 06:21:35 -75.74, 142.83 104.82 06/07/2021 06:21:23 -75.74, 142.82 104.81 0.22 12
8 06/07/2021 07:10:37 76.86, -45.89 73.86 06/07/2021 07:11:42 76.86, -45.82 73.79 1.91 65
9 06/09/2021 21:48:55 74.74, 88.36 76.13 06/09/2021 21:47:54 74.73, 88.27 76.21 2.82 61



Historial Predications of SNOs between AQUA and NPP
